SIC0904 LICC-LFLL

Flight info

Callsign SIC0904
Flight time 1h 49m
Altitude 34000
Route LIBRO DCT ENEPA DCT LURON DCT TURMO DCT TOBGA DCT DOBIM DCT PIGOS DCT BODRU DCT KOTIT Y42 LASUR Z42 PINED
Aircraft A320/M-SDE1FGIJ1RWYZ/LB1

Departure

Time 2026-04-29 17:11
Airport Catania-Fontanarossa Airport (LICC)

Arrival

Time 2026-04-29 19:00
Airport Lyon Saint-Exupéry Airport (LFLL)
Time Latitude Longitude Altitude Speed Heading
2026-04-29 16:51 37.46881 15.06192 32 ft 0 kts 354°
2026-04-29 17:03 37.46876 15.06192 4 ft 3 kts 354°
2026-04-29 17:04 37.46850 15.06198 33 ft 4 kts 345°
2026-04-29 17:04 37.46825 15.06209 31 ft 4 kts 324°
2026-04-29 17:04 37.46810 15.06232 30 ft 3 kts 268°
2026-04-29 17:04 37.46811 15.06242 32 ft 0 kts 264°
2026-04-29 17:07 37.46811 15.06241 32 ft 1 kts 264°
2026-04-29 17:07 37.46808 15.06207 31 ft 12 kts 263°
2026-04-29 17:07 37.46791 15.06002 32 ft 17 kts 264°
2026-04-29 17:07 37.46779 15.05858 32 ft 16 kts 264°
2026-04-29 17:08 37.46769 15.05730 32 ft 14 kts 264°
2026-04-29 17:08 37.46759 15.05614 32 ft 14 kts 263°
2026-04-29 17:08 37.46744 15.05458 32 ft 21 kts 263°
2026-04-29 17:08 37.46705 15.05292 32 ft 18 kts 223°
2026-04-29 17:09 37.46616 15.05199 34 ft 14 kts 210°
2026-04-29 17:09 37.46562 15.05237 35 ft 10 kts 94°
2026-04-29 17:09 37.46564 15.05270 35 ft 0 kts 85°
2026-04-29 17:10 37.46570 15.05338 35 ft 36 kts 83°
2026-04-29 17:10 37.46623 15.05961 36 ft 103 kts 84°
2026-04-29 17:10 37.46718 15.07084 42 ft 152 kts 83°
2026-04-29 17:10 37.46811 15.08422 608 ft 150 kts 84°
2026-04-29 17:11 37.46951 15.09730 1271 ft 151 kts 81°
2026-04-29 17:11 37.47154 15.11098 1568 ft 170 kts 81°
2026-04-29 17:11 37.47374 15.12645 1841 ft 189 kts 82°
2026-04-29 17:11 37.47618 15.14363 2140 ft 209 kts 80°
2026-04-29 17:12 37.47875 15.16198 2754 ft 215 kts 81°
2026-04-29 17:12 37.48135 15.18068 3427 ft 219 kts 81°
2026-04-29 17:12 37.48396 15.19950 4118 ft 222 kts 81°
2026-04-29 17:12 37.48485 15.20597 4345 ft 223 kts 81°
2026-04-29 17:13 37.48934 15.23831 5513 ft 228 kts 81°
2026-04-29 17:13 37.49182 15.25813 6209 ft 230 kts 89°
2026-04-29 17:13 37.48842 15.27747 6854 ft 229 kts 123°
2026-04-29 17:13 37.47734 15.29147 7407 ft 231 kts 154°
2026-04-29 17:14 37.46181 15.29692 7961 ft 235 kts 172°
2026-04-29 17:14 37.44562 15.30019 8620 ft 237 kts 174°
2026-04-29 17:14 37.42940 15.29843 9277 ft 236 kts 204°
2026-04-29 17:14 37.41619 15.28629 9865 ft 243 kts 233°
2026-04-29 17:15 37.40968 15.26599 10095 ft 265 kts 261°
2026-04-29 17:15 37.40745 15.24205 10332 ft 288 kts 263°
2026-04-29 17:15 37.40528 15.21597 10499 ft 311 kts 263°
2026-04-29 17:15 37.40294 15.18787 10650 ft 334 kts 263°
2026-04-29 17:16 37.40042 15.15830 11125 ft 344 kts 263°
2026-04-29 17:16 37.39780 15.12830 11810 ft 346 kts 264°
2026-04-29 17:16 37.39522 15.09818 12528 ft 348 kts 266°
2026-04-29 17:16 37.39690 15.06786 13240 ft 349 kts 281°
2026-04-29 17:17 37.40201 15.03797 13963 ft 350 kts 282°
2026-04-29 17:17 37.40719 15.00796 14579 ft 352 kts 282°
2026-04-29 17:17 37.41064 14.98800 14945 ft 354 kts 282°
2026-04-29 17:17 37.41759 14.94761 15684 ft 359 kts 282°
2026-04-29 17:18 37.42288 14.91678 16229 ft 363 kts 282°
2026-04-29 17:18 37.42821 14.88554 16738 ft 367 kts 282°
2026-04-29 17:18 37.43359 14.85399 17285 ft 371 kts 282°
2026-04-29 17:18 37.43725 14.83248 17651 ft 373 kts 282°
2026-04-29 17:19 37.44668 14.79072 18366 ft 379 kts 292°
2026-04-29 17:19 37.45455 14.77052 18667 ft 382 kts 299°
2026-04-29 17:19 37.46937 14.74253 19144 ft 386 kts 303°
2026-04-29 17:19 37.48479 14.71467 19621 ft 389 kts 303°
2026-04-29 17:20 37.50008 14.68691 20089 ft 392 kts 303°
2026-04-29 17:20 37.51561 14.65856 20555 ft 395 kts 303°
2026-04-29 17:20 37.53122 14.62997 21018 ft 398 kts 303°
2026-04-29 17:20 37.54698 14.60106 21451 ft 401 kts 303°
2026-04-29 17:21 37.56285 14.57196 21878 ft 404 kts 303°
2026-04-29 17:21 37.57884 14.54268 22304 ft 407 kts 303°
2026-04-29 17:21 37.59497 14.51318 22710 ft 410 kts 303°
2026-04-29 17:21 37.61122 14.48342 23124 ft 413 kts 302°
2026-04-29 17:22 37.62552 14.45203 23511 ft 414 kts 293°
2026-04-29 17:22 37.63672 14.41843 23846 ft 416 kts 291°
2026-04-29 17:22 37.64776 14.38465 24196 ft 418 kts 291°
2026-04-29 17:22 37.65887 14.35071 24573 ft 418 kts 291°
2026-04-29 17:23 37.66997 14.31680 24919 ft 419 kts 291°
2026-04-29 17:23 37.68108 14.28276 25263 ft 420 kts 291°
2026-04-29 17:23 37.69223 14.24870 25619 ft 420 kts 291°
2026-04-29 17:23 37.70339 14.21457 25968 ft 421 kts 291°
2026-04-29 17:24 37.71457 14.18039 26326 ft 421 kts 291°
2026-04-29 17:24 37.72573 14.14614 26643 ft 422 kts 291°
2026-04-29 17:24 37.73688 14.11183 26963 ft 423 kts 291°
2026-04-29 17:24 37.74803 14.07745 27269 ft 423 kts 291°
2026-04-29 17:25 37.75993 14.04341 27561 ft 425 kts 296°
2026-04-29 17:25 37.77610 14.01192 27843 ft 429 kts 306°
2026-04-29 17:25 37.79658 13.98431 28126 ft 434 kts 315°
2026-04-29 17:25 37.82056 13.96169 28397 ft 439 kts 324°
2026-04-29 17:26 37.84652 13.94097 28546 ft 443 kts 324°
2026-04-29 17:26 37.87264 13.92004 28736 ft 445 kts 324°
2026-04-29 17:26 37.89882 13.89902 28964 ft 446 kts 324°
2026-04-29 17:26 37.92503 13.87797 29279 ft 445 kts 324°
2026-04-29 17:27 37.95113 13.85700 29607 ft 444 kts 324°
2026-04-29 17:27 37.97714 13.83610 29971 ft 442 kts 323°
2026-04-29 17:27 38.00304 13.81524 30294 ft 440 kts 323°
2026-04-29 17:27 38.02881 13.79446 30585 ft 438 kts 323°
2026-04-29 17:28 38.05445 13.77378 30865 ft 436 kts 323°
2026-04-29 17:28 38.07999 13.75317 31161 ft 434 kts 323°
2026-04-29 17:28 38.10549 13.73257 31383 ft 435 kts 323°
2026-04-29 17:28 38.13106 13.71187 31591 ft 436 kts 323°
2026-04-29 17:29 38.15658 13.69121 31858 ft 435 kts 323°
2026-04-29 17:29 38.18204 13.67062 32147 ft 433 kts 323°
2026-04-29 17:29 38.20736 13.65007 32440 ft 431 kts 323°
2026-04-29 17:29 38.23259 13.62956 32737 ft 429 kts 322°
2026-04-29 17:30 38.25772 13.60916 33032 ft 427 kts 322°
2026-04-29 17:30 38.28274 13.58885 33331 ft 425 kts 322°
2026-04-29 17:30 38.30763 13.56867 33628 ft 424 kts 322°
2026-04-29 17:30 38.33242 13.54854 33917 ft 422 kts 322°
2026-04-29 17:31 38.35724 13.52833 34024 ft 424 kts 322°
2026-04-29 17:31 38.38208 13.50808 34033 ft 425 kts 322°
2026-04-29 17:31 38.43187 13.46737 34029 ft 426 kts 322°
2026-04-29 17:32 38.48172 13.42644 34029 ft 426 kts 322°
2026-04-29 17:32 38.53126 13.38585 34029 ft 426 kts 322°
2026-04-29 17:33 38.58148 13.34480 34030 ft 426 kts 322°
2026-04-29 17:33 38.63108 13.30410 34021 ft 427 kts 322°
2026-04-29 17:34 38.68105 13.26286 34016 ft 428 kts 322°
2026-04-29 17:34 38.73111 13.22154 34024 ft 428 kts 322°
2026-04-29 17:35 38.80630 13.15949 34016 ft 429 kts 322°
2026-04-29 17:36 38.85655 13.11813 34025 ft 431 kts 326°
2026-04-29 17:36 38.91070 13.08369 34024 ft 436 kts 329°
2026-04-29 17:37 38.96538 13.04980 34021 ft 437 kts 329°
2026-04-29 17:37 39.02013 13.01570 34015 ft 437 kts 329°
2026-04-29 17:38 39.07457 12.98171 34016 ft 438 kts 329°
2026-04-29 17:38 39.12935 12.94735 34033 ft 439 kts 330°
2026-04-29 17:39 39.18434 12.91290 34018 ft 440 kts 330°
2026-04-29 17:39 39.23945 12.87844 34029 ft 440 kts 330°
2026-04-29 17:40 39.29453 12.84386 34030 ft 440 kts 329°
2026-04-29 17:40 39.34965 12.80906 34037 ft 441 kts 330°
2026-04-29 17:41 39.40479 12.77417 34031 ft 442 kts 330°
2026-04-29 17:41 39.46006 12.73933 34028 ft 442 kts 330°
2026-04-29 17:42 39.51537 12.70441 34030 ft 442 kts 330°
2026-04-29 17:42 39.57064 12.66938 34041 ft 442 kts 330°
2026-04-29 17:43 39.62586 12.63424 34039 ft 443 kts 330°
2026-04-29 17:43 39.68121 12.59908 34039 ft 443 kts 330°
2026-04-29 17:44 39.73660 12.56380 34040 ft 443 kts 330°
2026-04-29 17:44 39.79158 12.52866 34041 ft 443 kts 330°
2026-04-29 17:45 39.84684 12.49326 34051 ft 443 kts 330°
2026-04-29 17:45 39.90204 12.45787 34046 ft 442 kts 330°
2026-04-29 17:46 39.95723 12.42250 34043 ft 442 kts 330°
2026-04-29 17:46 40.01231 12.38716 34041 ft 442 kts 330°
2026-04-29 17:47 40.06745 12.35161 34036 ft 442 kts 330°
2026-04-29 17:47 40.12261 12.31590 34034 ft 442 kts 330°
2026-04-29 17:48 40.17778 12.28023 34033 ft 442 kts 330°
2026-04-29 17:48 40.23298 12.24457 34032 ft 443 kts 330°
2026-04-29 17:49 40.28810 12.20880 34043 ft 442 kts 330°
2026-04-29 17:49 40.34318 12.17291 34046 ft 441 kts 330°
2026-04-29 17:50 40.39810 12.13708 34049 ft 441 kts 330°
2026-04-29 17:50 40.45299 12.10126 34046 ft 440 kts 330°
2026-04-29 17:51 40.50753 12.06564 34058 ft 440 kts 330°
2026-04-29 17:51 40.56226 12.02982 34053 ft 439 kts 330°
2026-04-29 17:52 40.61698 11.99393 34048 ft 439 kts 330°
2026-04-29 17:52 40.67159 11.95797 34045 ft 439 kts 330°
2026-04-29 17:53 40.72622 11.92193 34035 ft 439 kts 330°
2026-04-29 17:53 40.78081 11.88592 34035 ft 439 kts 330°
2026-04-29 17:54 40.83543 11.84981 34030 ft 439 kts 330°
2026-04-29 17:54 40.88745 11.80846 34028 ft 435 kts 322°
2026-04-29 17:55 40.93692 11.76224 34024 ft 435 kts 322°
2026-04-29 17:55 40.98604 11.71621 34031 ft 435 kts 321°
2026-04-29 17:56 41.03546 11.67001 34028 ft 435 kts 322°
2026-04-29 17:56 41.08491 11.62367 34018 ft 436 kts 322°
2026-04-29 17:57 41.13435 11.57717 34016 ft 436 kts 322°
2026-04-29 17:57 41.18388 11.53055 34017 ft 436 kts 322°
2026-04-29 17:58 41.23339 11.48386 34027 ft 437 kts 321°
2026-04-29 17:58 41.28285 11.43710 34024 ft 437 kts 321°
2026-04-29 17:59 41.33234 11.39019 34026 ft 437 kts 321°
2026-04-29 17:59 41.38182 11.34325 34026 ft 437 kts 321°
2026-04-29 18:00 41.43132 11.29631 34028 ft 437 kts 321°
2026-04-29 18:00 41.48090 11.24906 34018 ft 439 kts 321°
2026-04-29 18:01 41.53060 11.20164 34021 ft 440 kts 321°
2026-04-29 18:01 41.58012 11.15439 34020 ft 441 kts 321°
2026-04-29 18:02 41.62996 11.10664 34022 ft 441 kts 321°
2026-04-29 18:02 41.67973 11.05872 34040 ft 441 kts 321°
2026-04-29 18:03 41.72942 11.01084 34049 ft 439 kts 321°
2026-04-29 18:03 41.77898 10.96314 34054 ft 438 kts 321°
2026-04-29 18:04 41.82847 10.91547 34052 ft 438 kts 321°
2026-04-29 18:04 41.87786 10.86775 34046 ft 437 kts 321°
2026-04-29 18:05 41.92717 10.82001 34056 ft 436 kts 321°
2026-04-29 18:05 41.97628 10.77231 34057 ft 435 kts 321°
2026-04-29 18:06 42.02525 10.72455 34057 ft 435 kts 321°
2026-04-29 18:06 42.07419 10.67684 34053 ft 434 kts 321°
2026-04-29 18:07 42.12277 10.62943 34064 ft 434 kts 321°
2026-04-29 18:07 42.17165 10.58154 34060 ft 434 kts 321°
2026-04-29 18:08 42.22043 10.53369 34042 ft 434 kts 321°
2026-04-29 18:08 42.26105 10.49385 34037 ft 434 kts 321°
2026-04-29 18:09 42.30990 10.44584 34038 ft 434 kts 321°
2026-04-29 18:09 42.35874 10.39773 34032 ft 435 kts 321°
2026-04-29 18:10 42.40759 10.34943 34031 ft 434 kts 321°
2026-04-29 18:10 42.45633 10.30115 34029 ft 434 kts 321°
2026-04-29 18:11 42.50509 10.25282 34027 ft 434 kts 321°
2026-04-29 18:11 42.55382 10.20440 34024 ft 434 kts 321°
2026-04-29 18:12 42.60249 10.15593 34032 ft 434 kts 321°
2026-04-29 18:12 42.65107 10.10744 34030 ft 433 kts 321°
2026-04-29 18:13 42.69960 10.05890 34026 ft 433 kts 321°
2026-04-29 18:13 42.74812 10.01027 34026 ft 433 kts 321°
2026-04-29 18:14 42.79627 9.96188 34020 ft 433 kts 322°
2026-04-29 18:14 42.84471 9.91321 34023 ft 433 kts 321°
2026-04-29 18:15 42.89141 9.86189 34024 ft 430 kts 312°
2026-04-29 18:15 42.92816 9.79789 34011 ft 429 kts 305°
2026-04-29 18:16 42.95993 9.72917 34013 ft 428 kts 293°
2026-04-29 18:16 42.98227 9.65380 34003 ft 428 kts 291°
2026-04-29 18:17 43.00440 9.57829 34007 ft 428 kts 291°
2026-04-29 18:17 43.02648 9.50262 33999 ft 429 kts 291°
2026-04-29 18:18 43.04847 9.42691 33997 ft 429 kts 291°
2026-04-29 18:18 43.07054 9.35099 33989 ft 430 kts 291°
2026-04-29 18:19 43.09256 9.27501 33992 ft 430 kts 291°
2026-04-29 18:19 43.11453 9.19890 33991 ft 430 kts 291°
2026-04-29 18:20 43.13645 9.12274 33988 ft 430 kts 291°
2026-04-29 18:20 43.15819 9.04698 33983 ft 430 kts 291°
2026-04-29 18:21 43.18006 8.97063 33984 ft 431 kts 291°
2026-04-29 18:21 43.20186 8.89409 33987 ft 431 kts 291°
2026-04-29 18:22 43.22364 8.81736 33996 ft 432 kts 291°
2026-04-29 18:22 43.24535 8.74065 33996 ft 432 kts 291°
2026-04-29 18:23 43.26706 8.66382 33991 ft 432 kts 291°
2026-04-29 18:23 43.28877 8.58679 33998 ft 433 kts 291°
2026-04-29 18:24 43.31042 8.50978 33998 ft 433 kts 291°
2026-04-29 18:24 43.33211 8.43261 34018 ft 433 kts 291°
2026-04-29 18:25 43.35360 8.35544 34017 ft 433 kts 291°
2026-04-29 18:25 43.37510 8.27818 34019 ft 433 kts 291°
2026-04-29 18:26 43.39637 8.20137 34019 ft 433 kts 291°
2026-04-29 18:26 43.41775 8.12395 34019 ft 433 kts 291°
2026-04-29 18:27 43.43909 8.04653 34018 ft 433 kts 291°
2026-04-29 18:27 43.46037 7.96904 34011 ft 433 kts 291°
2026-04-29 18:28 43.48165 7.89137 34011 ft 434 kts 291°
2026-04-29 18:28 43.50288 7.81355 34011 ft 434 kts 291°
2026-04-29 18:29 43.52403 7.73569 34013 ft 434 kts 291°
2026-04-29 18:29 43.54519 7.65768 34015 ft 434 kts 291°
2026-04-29 18:30 43.56631 7.57963 34017 ft 435 kts 291°
2026-04-29 18:30 43.58743 7.50136 34025 ft 435 kts 291°
2026-04-29 18:31 43.60843 7.42306 34035 ft 435 kts 290°
2026-04-29 18:31 43.63585 7.34931 34035 ft 433 kts 306°
2026-04-29 18:32 43.67412 7.28486 34034 ft 433 kts 309°
2026-04-29 18:32 43.73168 7.18859 34031 ft 433 kts 309°
2026-04-29 18:33 43.77004 7.12431 34028 ft 433 kts 309°
2026-04-29 18:33 43.80833 7.05992 34029 ft 433 kts 309°
2026-04-29 18:34 43.84007 7.00638 34044 ft 432 kts 309°
2026-04-29 18:34 43.88465 6.93109 34052 ft 432 kts 309°
2026-04-29 18:35 43.92271 6.86660 34056 ft 432 kts 309°
2026-04-29 18:35 43.96045 6.80243 34047 ft 432 kts 309°
2026-04-29 18:36 43.99856 6.73777 34041 ft 433 kts 309°
2026-04-29 18:36 44.03666 6.67295 34056 ft 433 kts 308°
2026-04-29 18:37 44.07468 6.60805 34068 ft 432 kts 308°
2026-04-29 18:37 44.11260 6.54303 34066 ft 432 kts 308°
2026-04-29 18:38 44.15047 6.47800 34071 ft 432 kts 308°
2026-04-29 18:38 44.18831 6.41302 34054 ft 432 kts 308°
2026-04-29 18:39 44.22610 6.34773 34047 ft 432 kts 308°
2026-04-29 18:39 44.26388 6.28246 34054 ft 432 kts 308°
2026-04-29 18:40 44.30164 6.21718 34055 ft 432 kts 308°
2026-04-29 18:40 44.33928 6.15188 34057 ft 432 kts 308°
2026-04-29 18:41 44.41450 6.02100 34050 ft 432 kts 308°
2026-04-29 18:42 44.45200 5.95545 32981 ft 436 kts 308°
2026-04-29 18:42 44.47119 5.92184 31650 ft 446 kts 308°
2026-04-29 18:42 44.49069 5.88769 30469 ft 451 kts 308°
2026-04-29 18:43 44.51036 5.85324 29160 ft 455 kts 308°
2026-04-29 18:43 44.53021 5.81845 27890 ft 458 kts 308°
2026-04-29 18:43 44.55009 5.78356 26798 ft 457 kts 308°
2026-04-29 18:43 44.56986 5.74878 25821 ft 455 kts 308°
2026-04-29 18:44 44.58939 5.71430 25113 ft 448 kts 308°
2026-04-29 18:44 44.60861 5.68035 24414 ft 442 kts 308°
2026-04-29 18:44 44.62736 5.64719 23705 ft 438 kts 308°
2026-04-29 18:44 44.64859 5.61590 22916 ft 435 kts 319°
2026-04-29 18:45 44.67292 5.59201 22277 ft 431 kts 330°
2026-04-29 18:45 44.70026 5.57515 21640 ft 427 kts 341°
2026-04-29 18:45 44.72907 5.56621 21040 ft 423 kts 352°
2026-04-29 18:45 44.75817 5.56147 20465 ft 419 kts 352°
2026-04-29 18:46 44.78697 5.55680 19894 ft 414 kts 352°
2026-04-29 18:46 44.81541 5.55212 19366 ft 409 kts 352°
2026-04-29 18:46 44.84361 5.54740 18839 ft 406 kts 352°
2026-04-29 18:46 44.87151 5.54270 18328 ft 402 kts 352°
2026-04-29 18:47 44.89918 5.53803 17786 ft 398 kts 352°
2026-04-29 18:47 44.92652 5.53339 17285 ft 393 kts 352°
2026-04-29 18:47 44.95356 5.52881 16781 ft 389 kts 352°
2026-04-29 18:47 44.98023 5.52433 16269 ft 385 kts 352°
2026-04-29 18:48 45.00686 5.52095 15752 ft 383 kts 359°
2026-04-29 18:48 45.03343 5.52081 15231 ft 381 kts 359°
2026-04-29 18:48 45.05982 5.52066 14702 ft 378 kts 359°
2026-04-29 18:48 45.08608 5.52049 14153 ft 377 kts 359°
2026-04-29 18:49 45.11228 5.52026 13575 ft 376 kts 359°
2026-04-29 18:49 45.13830 5.52002 12999 ft 373 kts 359°
2026-04-29 18:49 45.16425 5.51977 12235 ft 375 kts 359°
2026-04-29 18:49 45.19041 5.51949 11470 ft 376 kts 359°
2026-04-29 18:50 45.21632 5.51920 10767 ft 377 kts 359°
2026-04-29 18:50 45.24207 5.51891 10592 ft 362 kts 359°
2026-04-29 18:50 45.26667 5.51862 10467 ft 346 kts 358°
2026-04-29 18:50 45.28997 5.51458 10350 ft 330 kts 346°
2026-04-29 18:51 45.31175 5.50634 10225 ft 317 kts 344°
2026-04-29 18:51 45.33255 5.49798 10104 ft 305 kts 339°
2026-04-29 18:51 45.35077 5.48402 9950 ft 294 kts 322°
2026-04-29 18:51 45.36489 5.46365 9687 ft 289 kts 305°
2026-04-29 18:52 45.37429 5.43864 9303 ft 286 kts 291°
2026-04-29 18:52 45.38161 5.41237 8910 ft 286 kts 290°
2026-04-29 18:52 45.38896 5.38616 8502 ft 285 kts 291°
2026-04-29 18:52 45.39631 5.35999 8113 ft 284 kts 291°
2026-04-29 18:53 45.40361 5.33398 7713 ft 283 kts 291°
2026-04-29 18:53 45.41091 5.30796 7331 ft 282 kts 291°
2026-04-29 18:53 45.41814 5.28218 6940 ft 280 kts 291°
2026-04-29 18:53 45.42540 5.25636 6559 ft 279 kts 291°
2026-04-29 18:54 45.43258 5.23078 6165 ft 277 kts 291°
2026-04-29 18:54 45.43971 5.20538 5779 ft 276 kts 291°
2026-04-29 18:54 45.44676 5.18021 5540 ft 268 kts 291°
2026-04-29 18:54 45.45364 5.15618 5409 ft 256 kts 296°
2026-04-29 18:55 45.46391 5.13641 5216 ft 246 kts 320°
2026-04-29 18:55 45.47818 5.12430 5064 ft 236 kts 342°
2026-04-29 18:55 45.49411 5.12032 4813 ft 230 kts 358°
2026-04-29 18:55 45.50999 5.11882 4615 ft 226 kts 358°
2026-04-29 18:56 45.52579 5.11718 4378 ft 228 kts 357°
2026-04-29 18:56 45.54150 5.11533 4095 ft 226 kts 357°
2026-04-29 18:56 45.55693 5.11346 3807 ft 225 kts 356°
2026-04-29 18:56 45.56742 5.11219 3604 ft 223 kts 356°
2026-04-29 18:57 45.58743 5.10976 3221 ft 212 kts 356°
2026-04-29 18:57 45.60180 5.10802 2974 ft 202 kts 357°
2026-04-29 18:57 45.61534 5.10637 2701 ft 187 kts 357°
2026-04-29 18:57 45.62771 5.10487 2446 ft 171 kts 357°
2026-04-29 18:58 45.63913 5.10349 2231 ft 160 kts 358°
2026-04-29 18:58 45.64654 5.10259 2097 ft 156 kts 357°
2026-04-29 18:58 45.65727 5.10130 1896 ft 153 kts 356°
2026-04-29 18:58 45.66772 5.10004 1697 ft 152 kts 356°
2026-04-29 18:59 45.67838 5.09872 1496 ft 151 kts 356°
2026-04-29 18:59 45.68865 5.09745 1308 ft 150 kts 355°
2026-04-29 18:59 45.69907 5.09616 1069 ft 150 kts 355°
2026-04-29 18:59 45.70936 5.09502 893 ft 147 kts 355°
2026-04-29 19:00 45.71913 5.09380 821 ft 122 kts 355°
2026-04-29 19:00 45.72582 5.09302 810 ft 71 kts 355°
2026-04-29 19:00 45.72900 5.09261 802 ft 24 kts 355°
2026-04-29 19:00 45.72981 5.09167 799 ft 13 kts 265°
2026-04-29 19:01 45.72977 5.09093 797 ft 3 kts 264°
2026-04-29 19:01 45.72973 5.09047 795 ft 7 kts 263°
2026-04-29 19:01 45.72966 5.08969 793 ft 9 kts 263°
2026-04-29 19:01 45.72960 5.08885 792 ft 8 kts 266°
2026-04-29 19:02 45.72957 5.08784 792 ft 13 kts 267°
2026-04-29 19:02 45.72950 5.08628 792 ft 17 kts 266°
2026-04-29 19:02 45.72941 5.08467 790 ft 17 kts 263°
2026-04-29 19:02 45.72874 5.08354 790 ft 16 kts 190°
2026-04-29 19:03 45.72773 5.08361 791 ft 13 kts 173°
2026-04-29 19:03 45.72686 5.08372 791 ft 12 kts 175°
2026-04-29 19:03 45.72616 5.08379 793 ft 8 kts 175°
2026-04-29 19:03 45.72552 5.08386 796 ft 12 kts 175°
2026-04-29 19:04 45.72446 5.08400 797 ft 16 kts 174°
2026-04-29 19:04 45.72352 5.08406 798 ft 10 kts 196°
2026-04-29 19:04 45.72326 5.08324 797 ft 10 kts 256°
2026-04-29 19:04 45.72315 5.08264 797 ft 4 kts 256°
2026-04-29 19:05 45.72309 5.08229 797 ft 3 kts 251°
2026-04-29 19:05 45.72303 5.08206 797 ft 2 kts 250°
2026-04-29 19:05 45.72298 5.08188 797 ft 3 kts 250°
2026-04-29 19:05 45.72290 5.08157 797 ft 2 kts 250°
2026-04-29 19:06 45.72288 5.08146 797 ft 0 kts 250°